Regional Weather Roundup
Issued by NWS Newport/Morehead, NC

Current Version | Previous Version | Graphics & Text | Print | Product List | Glossary On
Versions: 1 2 3 4 5 6 7 8 9 10 11 12 13 14 15 16 17 18 19 20 21 22 23 24 25 26 27 28 29 30 31 32 33 34 35 36 37 38 39 40 41 42 43 44 45 46 47 48 49 50
000 ASUS42 KMHX 271225 RWRMHX WEATHER ROUNDUP FOR EASTERN NORTH CAROLINA NATIONAL WEATHER SERVICE NEWPORT/MOREHEAD CITY NC 800 AM EDT THU APR 27 2017 NOTE: "FAIR" INDICATES FEW OR NO CLOUDS BELOW 12,000 FEET WITH NO SIGNIFICANT WEATHER AND/OR OBSTRUCTIONS TO VISIBILITY NCZ015>017-031-032-045>047-102-103-271300- NORTH COAST CITY SKY/WX TMP DP RH WIND PRES REMARKS EDENTON SUNNY 70 63 78 CALM 29.93R ELIZABETH CITY MOSUNNY 69 63 81 SW10 29.92R KITTY HAWK CLOUDY 68 62 79 CALM 29.93R MANTEO CLOUDY 67 63 84 SW9 29.94R $$ NCZ045>047-081-094-103-104-271300- CENTRAL COAST CITY SKY/WX TMP DP RH WIND PRES REMARKS FRISCO SUNNY 72 66 81 SW7 29.95R HAZE $$ NCZ095-097-098-100-101-271300- SOUTHERN COAST CITY SKY/WX TMP DP RH WIND PRES REMARKS BEAUFORT PTSUNNY 70 69 97 CALM 29.94R CEDAR ISLAND NOT AVBL JACKSONVILLE SUNNY 69 66 90 S3 29.92R PINEY ISLAND SUNNY N/A N/A N/A SW3 29.94R WILMINGTON MOSUNNY 70 67 90 S6 29.92R $$ NCZ011>013-027>030-043-044-078>080-089-090>093-098-271300- COASTAL PLAIN CITY SKY/WX TMP DP RH WIND PRES REMARKS AHOSKIE N/A 66 61 84 S5 29.91R CLINTON SUNNY 65 64 97 S3 29.91R ELIZABETHTOWN SUNNY 66 66 98 S6 29.90S GOLDSBORO SUNNY 65 65 100 S6 29.89 GREENVILLE SUNNY 70 63 78 SW9 29.94R HAVELOCK MOSUNNY 68 65 90 VRB5 29.94R KENANSVILLE SUNNY 64 63 94 CALM 29.92R KINSTON SUNNY 66 63 88 CALM 29.92R NEW BERN SUNNY 68 65 90 CALM 29.94R RICHLANDS SUNNY 67 65 93 S6 29.92S ROCKY MOUNT SUNNY 66 62 87 S6 29.89S WASHINGTON SUNNY 68 63 82 S5 29.93S WHITEVILLE SUNNY 67 64 89 S9 29.91R $$ AMZ130-135-150-152-154-156-158-170-250-252-270-ANZ085-086-088-633-658-670-271300- MARINE OBSERVATIONS STATION/POSITION TIME TEMP WIND PRES WAVE SWELL AIR SEA DIR/SP/G HT/PER HT/PER (UTC) (F) (DEG/KT/KT) (MB) (FT/S) (FT/S) CHESAPEAKE LIGHT NOT AVBL 64 E VA BEACH 1150 59 55 220/ 10/ 12 1013.7 5/ 9 5/ 9 DUCK 1154 68 58 220/ 10/ 14 1013.1 2 E DUCK 1200 61 N/A 4/11 2/11 OREGON INLET 1154 69 67 220/ 9/ 11 1013.7 13E OREGON INLT 1148 59 N/A 5/ 8 5/ 8 HATTERAS CG 1154 71 69 220/ 5/ 7 1013.8 DIAMOND BUOY 1150 76 77 230/ 12/ 14 1014.0 6/ 9 5/ 9 CAPE LOOKOUT 1200 70 180/ 3/ 3 1013.6 BEAUFORT LAB 1200 71 67 CALM / 2 1013.0 30 SE NEW RVR IN 1208 71 280/ 4/ 6 1013.8 30 SE NEW RVR IN 1143 71 N/A 4/ 9 2/11 27 SE WRIGHTSVLE 1208 71 72 180/ 4/ 8 1013.1 5 SE WRIGHTSVLE 1208 71 70 200/ 6/ 8 1013.0 225 S CAPE HAT 1150 74 74 180/ 14/ 16 1016.3 5/ 9 3/ 9 41 SE CHARLESTON 1200 73 73 210/ 8/ 10 1013.1 $$

USA.gov is the U.S. government's official web portal to all federal, state and local government web resources and services.